Other Public Products
Issued by NWS Grand Forks, ND

Home | Current Version | Previous Version | Text Only | Print | Product List | Glossary On
Versions: 1 2 3 4 5 6 7 8 9 10 11 12 13 14 15 16 17 18 19 20 21 22 23 24 25 26 27 28 29 30 31 32 33 34 35 36 37 38 39 40 41 42 43 44 45 46 47 48 49 50
000
FPUS83 KFGF 150131
OPUFGF
PRAIRIE TO PINES WEATHER ROUNDUP
NATIONAL WEATHER SERVICE EASTERN NORTH DAKOTA/GRAND FORKS ND
700 PM CST THU DEC 14 2017

 **SATELLITE DATA USED TO AUGMENT SKY COVER AT AUTOMATED STATIONS**
 *****  WEATHER ACROSS EASTERN NORTH DAKOTA  *****

CITY           SKY/WX    TMP DP  RH WIND       PRES   REMARKS
GRAND FORKS    FLURRIES  19  17  92 CALM      30.03F
GRND FORKS AFB FLURRIES  19  16  89 SE6       30.03S WCI  11
GRND FORKS NWS   N/A     19 N/A N/A NE1         N/A
BUXTON           N/A     19  18  95 E5          N/A  WCI  13
DEVILS LAKE    FLURRIES  28  27  93 W8        29.99F WCI  20
FARGO          LGT SNOW  23  21  92 CALM      30.03F FOG
WAHPETON ARPT  CLOUDY    25  21  86 CALM      30.06S
$$

 *****  WEATHER ACROSS CENTRAL AND WESTERN NORTH DAKOTA  *****

CITY           SKY/WX    TMP DP  RH WIND       PRES   REMARKS
JAMESTOWN      LGT SNOW  30  28  92 W9        30.01F FOG     WCI  22
BISMARCK       CLOUDY    36  25  64 W9        30.08F
MINOT          CLOUDY    34  24  67 NW20G25   30.03F WCI  23
MINOT AFB      CLOUDY    33  23  67 NW17      30.01F WCI  21
GARRISON         N/A     33  24  69 W10       30.04F WCI  25
WILLISTON      FAIR      28  22  78 W6        30.09F WCI  22
DICKINSON      FAIR      29  24  82 W12       30.06F WCI  19
HETTINGER      FAIR      22  19  89 W8        30.11F WCI  12
$$

 *****  OTHER OBSERVATIONS NORTHEAST NORTH DAKOTA  *****

CITY           SKY/WX    TMP DP  RH WIND       PRES   REMARKS
WALHALLA       FAIR      21  21 100 NW8       30.03F WCI  12
LANGDON        CLOUDY    21  21 100 N9        29.99S WCI  11
CAVALIER       CLOUDY    21  19  93 NW6       30.03F WCI  14
GRAFTON        CLOUDY    19  18  93 CALM      30.06S
CANDO          CLOUDY    28  30 100 NW7       30.00F WCI  21
FORT TOTTEN      N/A     29  26  90 W3        29.95
ROLLA          CLOUDY    27  27 100 NW13      29.99R WCI  16
RUGBY          CLOUDY    30  28  93 W13       30.00F WCI  20
 ***** THE ABOVE OBSERVATIONS ARE NON NWS ARE NOT QUALITY
        CONTROLLED AND MAY MIS-REPORT RAIN FOR SNOW...
$$

 *****  OTHER OBSERVATIONS SOUTHEAST NORTH DAKOTA *****

CITY           SKY/WX    TMP DP  RH WIND       PRES   REMARKS
COOPERSTOWN    CLOUDY    28  27  93 W9        30.00F WCI  20
VALLEY CITY    CLOUDY    28  28 100 W8        30.02F WCI  20
OAKES            N/A     28  27  93 W7        30.05F WCI  21
GWINNER          N/A     28  25  86 W9        30.04F WCI  20
SHEYENNE NWR     N/A     26  25  95 W5        29.95S WCI  20
BUFFALO          N/A     29  25  88 SW9         N/A  WCI  20
WYNDMERE       NOT AVBL
 ***** THE ABOVE OBSERVATIONS ARE NON NWS ARE NOT QUALITY
       CONTROLLED AND MAY MIS-REPORT RAIN FOR SNOW...
$$

  *****  WEATHER ACROSS NORTHERN MINNESOTA  *****

CITY           SKY/WX    TMP DP  RH WIND       PRES   REMARKS
FLAG ISLAND    CLOUDY    10   7  85 NW14      29.96S WCI  -5
WARROAD        FLURRIES  12  10  92 NW12      29.98S WCI  -2
ROSEAU         FLURRIES  16  10  79 NW14      29.99S WCI   1
HALLOCK        FLURRIES  19  16  86 W7        30.02S WCI  10
THF RVR FALLS  FLURRIES  14  11  87 W3        30.01F
HALSTAD        NOT AVBL
FOSSTON        FLURRIES  12  10  92 CALM      30.01F
BAUDETTE       FLURRIES  12   8  84 NW12      29.95S WCI  -2
WASKISH        FLURRIES  12   9  85 W8        29.97S WCI   1
CROOKSTON      LGT SNOW  18  16  93 CALM      30.04F
$$
  *****  WEATHER ACROSS CENTRAL AND WEST MINNESOTA  *****

CITY           SKY/WX    TMP DP  RH WIND       PRES   REMARKS
BEMIDJI        FLURRIES  13   9  83 NW12G17   29.97S WCI  -1
PARK RAPIDS    FLURRIES  16  11  80 NW14G22   29.98R WCI   2
WADENA         FLURRIES  18  14  86 NW7       30.00S WCI   8
DETROIT LAKES  FLURRIES  19  16  86 NW8       30.01F WCI   9
MOORHEAD       LGT SNOW  21  19  93 CALM      30.04F
FERGUS FALLS   MIX PCPN  21  19  93 W5        30.06F WCI  15
ELBOW LAKE     CLOUDY    22  20  93 NW6       30.04S WCI  14
MORRIS MN      FLURRIES  25  19  80 NW7       30.04S WCI  17
STAPLES        CLOUDY    18  12  79 NW12      29.99F WCI   5
WHEATON        CLOUDY    25  19  80 W5        30.07F WCI  19
$$
  *****  WEATHER ELSEWHERE ACROSS MINNESOTA  *****

CITY           SKY/WX    TMP DP  RH WIND       PRES   REMARKS
DULUTH         FLURRIES  15   9  76 NW13      29.90F WCI   1
INTRNTL FALLS  LGT SNOW  12   7  80 W8        29.92F WCI   0
ELY            LGT SNOW  12   9  85 W6        29.89S WCI   3
CLOQUET        FLURRIES  16   9  73 W10G16    29.92S WCI   3
BRAINERD       CLOUDY    19  12  74 NW9G18    29.98F WCI   8
HIBBING        FLURRIES  12   6  77 NW12      29.92F WCI  -2
ALEXANDRIA     CLOUDY    21  17  84 MISG      30.01F
SAINT CLOUD    CLOUDY    22  16  78 NW15G24   30.01S WCI   9
MINNEAPOLIS    CLOUDY    23  17  78 NW12      30.03S WCI  12
$$

  *****  WEATHER ACROSS SOUTH DAKOTA  *****

CITY           SKY/WX    TMP DP  RH WIND       PRES   REMARKS
SIOUX FALLS    CLOUDY    31  26  82 NW12      30.10R WCI  22
BROOKINGS      CLOUDY    25  21  85 NW9       30.09  WCI  15
WATERTOWN      CLOUDY    25  23  92 NW8       30.06F WCI  16
HURON          CLOUDY    27  26  96 W3        30.13F
SISSETON         N/A     27  23  85 W5        30.05F WCI  22
ABERDEEN       CLOUDY    26  25  96 SW6       30.10S WCI  19
MITCHELL       FAIR      27  25  92 N9        30.16R WCI  18
PIERRE         MOCLDY    31  25  78 NW7       30.15S WCI  24
MOBRIDGE       CLOUDY    34  25  69 NW6       30.08F
RAPID CITY     FAIR      28  17  63 NW10      30.17F WCI  19
$$

  *****  SOME WEATHER IN NEARBY STATES *****

CITY           SKY/WX    TMP DP  RH WIND       PRES   REMARKS
GLASGOW MT     FAIR      29  21  72 W6        30.10F WCI  23
GREAT FALLS MT FAIR      35  20  54 SW20G26   30.11S WCI  24
CHEYENNE WY    FAIR      25  15  66 NW14G20   30.18R WCI  13
SCOTTSBLUFF NE FAIR      22  17  81 NW9       30.23S WCI  12
OMAHA NE       MOCLDY    36  24  62 CALM      30.11R
DES MOINES IA  CLOUDY    32  21  64 SW5       30.09R
DAVENPORT IA   CLOUDY    26  15  63 W9        30.11R WCI  17
CHICAGO IL     FAIR      21  11  65 W3        30.07S
EAU CLAIRE WI  FLURRIES  21  16  81 W12       29.98F WCI   9
LA CROSSE WI   CLOUDY    26  17  68 W9        30.02R WCI  17
$$

  *****  SOME NATIONAL WEATHER *****

CITY           SKY/WX    TMP DP  RH WIND       PRES   REMARKS
LA GUARDIA NY  FAIR      28  10  46 NW16      30.04R WCI  16
RALEIGH NC     FAIR      41  27  57 NE7       29.99R
ATLANTA GA     MOCLDY    49  37  63 SW7       29.97R
NEW ORLEANS LA CLOUDY    57  51  80 CALM      30.02R
OKLAHOMA CITY  FAIR      39  26  59 SW3       30.16R
ALBUQUERQUE NM FAIR      40  14  34 E9        30.17R
SALT LAKE CITY FAIR      30  24  78 N6        30.41R WCI  24
LOS ANGELES CA FAIR      62  56  80 SW7       30.01R
BOISE ID       CLOUDY    27  23  85 CALM      30.49S
SEATTLE WA     MOCLDY    44  35  70 CALM      30.27R
$$

*** WEATHER ACROSS MANITOBA...SASKATCHEWAN AND ONTARIO ***
                ***ONTARIO***

CITY           SKY/WX    TMP DP  RH WIND       PRES   REMARKS
GERALDTON      CLOUDY     5   0  78 W3        29.81F
THUNDER BAY    LGT SNOW  16  12  86 SW5       29.88F WCI   9
SIOUX LOOKOUT  FLURRIES   9   7  92 W6        29.84F WCI  -1
TORONTO        PTCLDY    12   5  73 W8        30.00R WCI   1
BIG TROUT LK   FLURRIES  -9 -13  84 NW12G22   29.91R WCI -29
PICKLE LAKE    FLURRIES   3   1  92 NW3       29.80F
DRYDEN         FLURRIES  10   7  85 W10       29.86S WCI  -3
KENORA         LGT SNOW   9   5  85 NW7       29.91F WCI  -3
$$
                *** MANITOBA***

CITY           SKY/WX    TMP DP  RH WIND       PRES   REMARKS
BRANDON        CLOUDY    25  18  74 N13       30.01F WCI  13
DAUPHIN        CLOUDY    18  16  93 NE6       30.05F WCI   9
ISLAND LAKE    FLURRIES  -6 -11  77 NW13G21   30.04  WCI -25
PILOT MOUND      N/A     21  18  86 NE6         N/A  WCI  14
THE PAS        CLOUDY     9   1  72 E6        30.05F WCI  -1
THOMPSON       CLEAR    -18 -24  76 W5        30.08F WCI -31
WINNIPEG       FLURRIES  16  12  86 NW7       30.03F WCI   6
LYNN LAKE      CLOUDY     0  -2  92 CALM      30.00F
CHURCHILL      LGT SNOW  -8 -11  84 NW14      30.02F WCI -28
GILLAM         CLOUDY    -9 -15  77 N10       30.07F WCI -28
$$
                ***SASKATCHEWAN***

CITY           SKY/WX    TMP DP  RH WIND       PRES   REMARKS
ESTEVAN        CLOUDY    30  23  74 W13G22    30.05F WCI  20
KINDERSLEY     CLOUDY    27  25  93 SW9       29.97F WCI  17
LLOYDMINSTER   CLOUDY    32  28  86 SW13      29.87F WCI  22
PRINCE ALBERT  CLOUDY    27  21  80 S2        29.98F
REGINA         MOCLDY    27  23  86 NW7       30.04F WCI  19
YORKTON        CLOUDY    25  23  93 NW7       30.00F WC


USA.gov is the U.S. government's official web portal to all federal, state and local government web resources and services.